Iron Mountain, MI

6:20 PM CST on February 06, 2016 (GMT -0600)
Ford

Weather History for KIMT - June, 2012

Change the Weather History Date:

Thursday, June 21, 2012

  Actual Average Record
Temperature  
Mean Temperature 70 °F -  
Max Temperature 79 °F - - ()
Min Temperature 60 °F - - ()
Cooling Degree Days 4    
Growing Degree Days 20 (Base 50)    
Moisture  
Dew Point 58 °F    
Average Humidity 72    
Maximum Humidity 97    
Minimum Humidity 39    
Precipitation  
Precipitation 0.14 in - - ()
Sea Level Pressure  
Sea Level Pressure 29.82 in    
Wind  
Wind Speed 5 mph (WNW)    
Max Wind Speed 16 mph    
Max Gust Speed 26 mph    
Visibility 10 miles    
Events Rain    
T = Trace of Precipitation, MM = Missing Value Source: NWS Daily Summary

Daily Weather History Graph

Daily Weather History Graph

Search for Another Location

Airport or City:

Trip Planner

Search our weather history database for the weather conditions in past years. The results will help you decide how hot, cold, wet, or windy it might be!

Date:

Astronomy

Jun. 21, 2012 Rise Set
Actual Time 5:02 AM CDT 8:46 PM CDT
Civil Twilight 4:24 AM CDT 9:24 PM CDT
Nautical Twilight 3:32 AM CDT 10:16 PM CDT
Astronomical Twilight 2:20 AM CDT 11:27 PM CDT
Moon 7:06 AM CDT (6/21) 10:01 PM CDT (6/21)
Length of Visible Light 17h 00m
Length of Day
15h 43m
Waxing Crescent, 4% of the Moon is Illuminated
Jun 21
Waxing Crescent
Jun 26
First Quarter
Jul 3
Full
Jul 10
Last Quarter
Jul 18
New

Hourly Weather History & Observations

Time (CDT) Temp. Dew Point Humidity Pressure Visibility Wind Dir Wind Speed Gust Speed Precip Events Conditions
12:28 AM 68.0 °F 66.2 °F 94% 29.78 in 9.0 mi Calm Calm - 0.03 in Rain Light Rain
12:54 AM 66.9 °F 66.0 °F 97% 29.78 in 3.0 mi Calm Calm - 0.10 in Rain Rain
1:20 AM 68.0 °F 64.4 °F 88% 29.78 in 7.0 mi NW 9.2 mph - 0.04 in Rain Light Rain
1:31 AM 66.2 °F 62.6 °F 88% 29.78 in 10.0 mi WNW 6.9 mph - 0.04 in Rain Light Rain
1:54 AM 64.9 °F 63.0 °F 93% 29.73 in 10.0 mi NW 3.5 mph - 0.04 in Rain Light Rain
2:24 AM 64.4 °F 62.6 °F 94% 29.77 in 10.0 mi South 4.6 mph - 0.00 in   Overcast
2:54 AM 64.9 °F 62.1 °F 90% 29.73 in 10.0 mi Calm Calm - 0.00 in Rain Light Rain
3:54 AM 64.9 °F 62.1 °F 90% 29.75 in 10.0 mi West 3.5 mph - 0.00 in   Scattered Clouds
4:54 AM 64.0 °F 62.1 °F 93% 29.77 in 10.0 mi WSW 3.5 mph - N/A   Clear
5:54 AM 64.0 °F 61.0 °F 90% 29.79 in 10.0 mi West 4.6 mph - N/A   Overcast
6:54 AM 66.0 °F 61.0 °F 84% 29.80 in 10.0 mi WNW 6.9 mph - N/A   Clear
7:35 AM 66.2 °F 60.8 °F 83% 29.82 in 10.0 mi Variable 6.9 mph - N/A   Mostly Cloudy
7:45 AM 66.2 °F 60.8 °F 83% 29.82 in 10.0 mi West 8.1 mph 17.3 mph N/A   Scattered Clouds
7:54 AM 68.0 °F 61.0 °F 78% 29.81 in 10.0 mi West 8.1 mph - N/A   Scattered Clouds
8:54 AM 69.1 °F 60.1 °F 73% 29.83 in 10.0 mi WNW 8.1 mph - N/A   Mostly Cloudy
9:54 AM 71.1 °F 59.0 °F 66% 29.83 in 10.0 mi WNW 10.4 mph - N/A   Partly Cloudy
11:54 AM 72.0 °F 57.0 °F 59% 29.83 in 10.0 mi West 9.2 mph 18.4 mph N/A   Mostly Cloudy
12:54 PM 77.0 °F 55.0 °F 47% 29.82 in 10.0 mi West 12.7 mph 24.2 mph N/A   Partly Cloudy
1:54 PM 75.9 °F 54.0 °F 46% 29.82 in 10.0 mi West 13.8 mph 21.9 mph N/A   Mostly Cloudy
2:54 PM 75.9 °F 51.1 °F 42% 29.82 in 10.0 mi West 13.8 mph 25.3 mph N/A   Mostly Cloudy
3:54 PM 75.0 °F 51.1 °F 43% 29.83 in 10.0 mi West 12.7 mph - N/A   Scattered Clouds
4:54 PM 73.0 °F 51.1 °F 46% 29.85 in 10.0 mi NW 11.5 mph 23.0 mph N/A   Partly Cloudy
5:54 PM 73.0 °F 46.9 °F 39% 29.86 in 10.0 mi NW 16.1 mph 26.5 mph N/A   Partly Cloudy
6:54 PM 73.0 °F 46.9 °F 39% 29.86 in 10.0 mi NW 6.9 mph - N/A   Clear
7:54 PM 71.1 °F 48.9 °F 45% 29.88 in 10.0 mi NW 5.8 mph - N/A   Overcast
8:54 PM 64.9 °F 53.1 °F 65% 29.90 in 10.0 mi Calm Calm - N/A   Mostly Cloudy
9:54 PM 62.1 °F 53.1 °F 72% 29.92 in 10.0 mi Calm Calm - N/A   Mostly Cloudy
10:54 PM 62.1 °F 54.0 °F 75% 29.92 in 10.0 mi Calm Calm - N/A   Mostly Cloudy
11:54 PM 60.1 °F 52.0 °F 75% 29.93 in 10.0 mi Calm Calm - N/A   Mostly Cloudy